EHI
14 17 18 22 32 40 41 37 33 32 30 27 25 25 23 22 22 24 27 25 20 17 13 12 12 12 11 13 15 14 13 14 15 13 9 8 9 9 6 6 9 12 13
20 21 22 25 35 46 47 43 39 36 32 29 28 26 23 22 22 25 28 26 21 17 14 14 15 15 15 16 17 17 16 14 14 13 10 7 6 5 4 3 6 9 8
24 25 25 26 36 50 53 49 48 45 40 35 30 26 23 21 22 26 29 27 20 17 16 16 16 16 17 18 18 19 19 16 13 11 10 7 4 4 4 2 4 6 6
25 26 26 25 33 47 55 58 58 55 49 42 33 26 21 19 20 26 29 26 21 17 17 16 14 14 15 15 16 19 21 19 15 12 10 8 6 5 5 4 4 5 6
26 26 27 26 30 41 54 63 66 62 56 47 36 28 22 18 19 24 28 26 23 20 18 16 16 15 14 12 13 16 19 19 16 12 10 9 7 6 6 5 4 4 5
26 26 26 27 30 37 49 60 65 64 58 49 40 33 28 23 21 24 26 25 23 21 20 19 20 19 17 14 13 15 17 17 14 12 11 10 8 7 7 7 7 6 7
24 24 24 30 34 37 44 54 61 62 59 53 46 40 33 28 27 24 22 20 19 20 22 23 23 22 19 17 15 16 18 17 15 14 12 11 10 8 7 8 9 8 8
20 20 23 32 36 37 42 51 58 61 60 55 51 45 39 31 26 23 19 15 14 16 21 24 25 23 20 18 18 18 18 20 19 17 15 13 11 8 7 8 9 8 7
20 19 23 29 32 35 41 48 55 58 57 54 50 46 41 33 25 22 19 14 12 15 19 23 25 24 21 22 23 21 19 21 22 20 18 16 13 10 9 9 9 9 9
22 22 24 27 29 32 38 45 49 53 52 50 45 40 39 35 28 24 22 19 18 21 24 27 28 27 25 25 25 23 21 22 23 22 20 17 14 13 14 13 12 11 10
23 23 24 26 29 32 37 42 44 47 47 44 40 39 39 36 31 27 26 25 27 31 34 35 33 31 29 27 25 23 22 24 25 25 22 19 16 16 18 19 17 14 12
22 23 25 27 29 31 35 39 41 42 42 41 40 42 40 36 33 31 31 32 34 38 41 40 37 35 34 31 28 25 24 26 27 28 26 21 18 18 21 22 19 16 14
24 25 29 32 33 33 35 37 37 36 38 41 42 41 38 35 35 36 37 38 39 40 41 40 39 39 39 36 33 29 27 27 29 31 29 24 21 22 23 22 20 16 15
29 32 38 42 42 40 40 37 33 32 36 41 43 41 39 39 41 42 41 41 40 40 39 38 39 41 40 36 32 30 28 28 29 31 29 25 23 24 22 21 19 16 16
34 39 45 48 47 44 41 37 33 32 35 40 42 43 43 43 45 45 43 42 41 38 37 36 36 38 36 30 28 27 27 27 28 28 27 24 22 20 17 15 13 13 14
36 41 46 48 45 41 38 36 35 34 36 39 41 42 43 42 42 42 42 42 40 37 35 33 32 32 30 24 21 22 24 25 26 26 25 22 18 15 12 10 7 7 9
39 43 46 44 40 37 35 36 36 35 35 35 38 40 39 38 37 37 38 37 36 34 33 30 30 29 26 18 14 14 18 22 25 26 25 23 19 16 14 12 8 6 5
41 43 43 41 38 35 33 35 36 35 33 32 34 36 37 36 35 36 35 34 32 31 30 27 28 28 23 16 10 9 13 19 22 24 25 25 23 19 15 13 11 9 7
39 38 38 40 39 35 33 33 34 33 31 30 31 33 35 34 34 35 35 34 31 29 27 25 25 26 22 15 8 7 14 19 21 22 23 23 21 15 11 10 11 11 8
36 35 37 41 42 39 35 32 32 31 29 28 29 32 33 32 31 33 34 33 31 28 25 24 25 25 23 14 6 7 14 19 19 19 20 18 12 7 5 6 9 9 7
38 38 41 45 47 43 37 34 33 31 29 28 29 30 30 29 28 30 32 31 29 27 24 22 23 24 21 14 5 5 11 16 17 17 17 14 6 2 2 3 6 7 5
39 41 46 50 50 47 42 37 35 34 33 31 29 27 25 25 25 27 28 28 27 24 19 17 17 19 18 11 4 2 4 9 12 14 13 9 4 0 0 1 3 4 3
37 40 45 49 51 48 45 40 37 36 35 32 28 24 21 22 24 24 24 24 24 20 15 12 13 15 15 10 4 1 1 3 6 7 5 3 1 0 0 1 2 3 3
39 39 41 46 49 48 45 42 39 35 31 28 25 21 18 20 21 20 20 20 18 15 12 11 13 14 15 10 5 2 1 1 2 2 1 0 1 1 2 2 3 3 4
42 41 41 43 46 45 43 40 38 34 29 26 23 19 16 16 17 16 14 13 11 9 8 10 13 14 13 9 4 3 2 2 1 1 1 2 3 3 4 4 4 5 5
43 42 41 41 42 42 40 38 36 33 30 27 22 18 15 14 14 12 9 7 6 6 6 8 11 13 11 6 2 1 1 1 1 1 3 3 3 4 4 5 5 5 6
Wind_Speed
12 12 11 11 11 10 9 7 6 5 3 3 2 2 2 1 1 1 2 2 2 2 2 1 2 1 1 1 1 1 1 1 1 1 1 1 2 2 2 2 2 2 3
12 12 11 11 11 11 9 8 7 6 5 3 2 2 2 2 2 1 2 2 1 1 2 2 2 1 1 1 1 1 1 2 1 1 0 0 1 2 2 2 3 2 2
14 13 12 11 11 11 10 9 8 7 6 4 3 2 2 2 2 2 2 2 1 2 1 1 1 1 1 1 2 1 2 2 1 1 1 1 1 1 1 2 1 1 2
13 13 12 12 11 11 10 8 7 6 6 5 4 4 3 2 2 2 2 2 2 2 2 1 1 1 0 1 2 2 2 1 1 1 1 1 1 1 1 1 1 1 1
13 13 12 11 10 11 11 9 8 6 6 5 5 4 3 2 1 2 2 2 2 2 2 2 2 1 1 1 1 1 1 1 2 1 1 1 1 2 1 1 1 1 1
12 11 11 10 9 9 9 9 8 7 6 6 5 5 4 3 2 2 2 2 2 2 2 2 2 1 1 1 1 1 2 1 2 2 1 1 1 2 1 2 2 2 2
11 11 10 10 9 8 8 8 8 7 6 6 5 5 4 4 3 3 3 3 2 2 2 2 2 2 2 2 1 2 2 2 2 2 2 1 2 1 1 1 1 1 1
10 10 10 10 8 8 8 8 8 7 6 6 5 4 4 3 3 3 3 3 2 1 2 2 2 2 2 2 1 2 2 2 2 3 2 2 2 2 2 1 1 1 2
9 9 9 10 9 7 7 8 8 7 6 6 5 4 4 3 3 2 2 2 1 2 2 2 2 2 2 2 1 2 2 2 2 2 2 2 2 2 2 2 2 2 2
8 9 8 9 9 9 8 7 8 7 6 5 5 4 4 3 2 3 2 2 1 1 2 2 2 1 1 1 1 2 1 2 2 2 2 2 2 2 1 1 2 2 2
8 8 8 7 7 7 7 6 7 7 6 5 4 4 4 4 4 3 3 2 1 1 2 2 2 2 2 1 1 2 2 2 2 3 2 2 2 2 2 2 1 1 1
7 7 7 7 6 6 5 5 5 6 6 5 4 4 3 3 4 3 3 3 2 2 2 2 2 3 2 2 2 2 2 2 3 2 2 2 2 2 2 2 2 1 1
7 7 7 6 5 5 5 4 3 4 4 4 4 4 3 3 3 2 2 2 2 2 2 2 2 2 2 2 2 3 2 2 2 2 2 2 2 2 2 2 2 2 2
6 7 7 6 5 4 4 3 3 3 3 3 4 3 3 3 3 2 2 2 2 2 2 2 2 2 2 2 2 2 2 2 2 2 2 2 2 2 3 2 2 2 1
7 6 6 6 5 4 4 3 2 2 2 2 2 3 2 1 1 2 2 2 2 3 2 2 2 2 2 2 2 3 3 2 3 3 2 2 1 1 1 2 2 2 1
7 6 6 6 6 5 4 3 2 2 3 2 2 2 2 2 2 2 2 2 2 2 2 3 2 3 2 1 1 2 3 3 3 3 3 3 2 2 2 2 2 2 3
6 6 6 6 6 5 4 3 3 2 2 2 2 2 2 1 2 2 2 2 3 3 2 3 2 2 2 1 2 3 3 3 3 3 3 3 2 1 1 2 3 3 5
5 5 5 5 6 5 5 3 3 3 2 2 2 2 2 2 2 2 2 2 2 3 3 2 2 2 1 1 1 3 4 3 3 3 2 2 1 2 1 2 3 3 3
4 4 5 6 5 5 5 4 3 3 2 2 2 2 2 2 2 2 2 2 2 2 3 3 2 2 2 2 1 2 3 3 3 3 2 2 1 2 2 2 2 2 2
4 4 5 6 6 5 5 4 4 3 2 2 2 1 2 2 2 2 2 2 2 3 3 2 2 2 2 2 2 2 3 3 3 2 2 2 1 2 2 2 2 2 3
4 3 4 5 5 5 4 3 3 3 2 1 1 1 1 2 2 1 1 1 2 2 2 1 1 2 2 2 3 3 2 3 3 2 2 2 3 3 3 3 3 3 3
3 3 3 3 5 5 5 3 2 2 2 1 1 1 1 2 2 1 1 1 2 2 2 2 2 2 2 1 3 4 4 4 3 2 1 1 4 4 4 4 4 4 2
3 3 3 3 4 4 4 3 2 2 2 1 1 1 1 1 1 2 2 2 2 3 3 2 2 1 1 1 2 3 4 4 3 3 2 2 4 4 5 6 6 4 3
3 3 3 3 4 4 3 3 3 2 2 1 1 2 2 2 1 1 2 2 2 2 2 2 2 1 1 1 0 1 1 2 2 3 3 3 5 5 5 4 4 4 3
2 2 2 2 3 2 3 3 3 3 2 1 2 2 2 2 1 1 1 2 1 1 2 2 1 1 0 0 0 1 1 2 2 2 2 3 3 3 3 3 3 4 3
2 2 3 2 2 2 2 2 3 2 2 2 2 2 2 1 1 1 0 3 1 1 1 1 1 0 1 2 2 1 1 1 1 1 2 3 2 2 2 2 2 3 3
Wind_Direction
168 166 167 163 159 159 161 167 171 166 178 182 200 184 171 196 179 161 160 154 181 187 191 204 203 213 170 158 165 205 241 236 235 280 307 242 218 200 209 209 178 183 173
165 165 170 169 166 165 167 169 173 177 195 191 194 189 191 200 173 183 145 143 181 199 190 191 213 203 167 167 193 191 281 270 215 197 198 242 301 287 212 202 196 185 163
168 167 174 175 170 167 172 178 178 180 195 191 192 194 187 214 175 162 154 161 186 186 233 173 207 214 189 174 191 208 226 247 257 200 195 187 220 283 271 241 197 172 162
169 170 176 180 176 171 171 169 168 177 181 185 193 198 201 211 192 173 159 176 185 190 200 184 222 227 224 175 216 201 249 253 263 255 211 183 174 205 277 276 235 217 184
171 171 176 178 176 171 169 166 165 171 174 186 193 208 205 202 196 176 182 195 186 186 197 179 217 230 209 213 233 252 267 267 271 269 258 223 227 243 223 253 253 250 214
169 165 168 165 168 166 163 161 161 169 176 187 193 202 209 202 197 195 193 208 198 193 195 189 200 216 219 231 209 235 240 261 294 300 284 248 217 240 221 229 237 236 232
163 162 163 159 159 159 158 154 158 167 174 182 190 192 201 202 200 207 204 215 207 192 191 189 195 206 210 222 216 239 243 235 248 261 274 275 253 253 247 237 242 245 251
159 156 161 157 157 160 159 156 157 168 175 179 186 182 189 209 209 213 216 217 213 176 180 174 191 208 212 228 226 239 247 233 239 253 263 273 265 251 237 236 228 251 259
151 150 151 153 154 163 161 161 157 163 173 178 178 179 188 212 216 213 223 217 226 191 175 173 176 195 199 212 222 242 242 231 232 254 263 268 273 264 244 233 216 218 252
147 151 152 150 155 166 163 156 156 163 167 168 179 183 192 199 204 218 216 226 212 209 171 176 175 181 201 211 210 238 241 237 247 245 252 271 284 288 276 246 240 221 230
151 152 147 147 148 153 154 153 151 160 165 170 175 177 184 194 202 209 206 220 229 209 189 190 197 203 206 209 221 241 240 233 253 262 252 263 282 302 314 298 278 255 228
146 146 144 144 147 146 144 143 154 163 165 160 165 174 180 190 205 209 208 207 216 218 207 203 212 220 213 216 221 252 252 243 247 256 256 266 272 281 298 306 309 304 269
136 140 138 138 140 139 138 144 154 159 161 157 170 171 187 200 212 208 211 202 202 215 214 209 209 219 226 232 230 236 241 246 246 246 250 258 266 269 276 271 284 284 285
139 144 138 132 128 128 127 141 157 152 154 160 172 168 189 206 203 202 207 202 200 210 220 228 222 216 222 234 242 249 239 244 248 246 245 255 254 261 267 252 257 269 273
152 144 138 131 131 130 128 129 135 134 138 141 166 162 174 201 202 198 211 207 208 218 216 238 251 234 221 243 245 256 244 244 251 248 239 233 219 242 282 284 286 282 274
153 150 146 144 144 142 141 139 140 133 131 148 163 156 177 195 202 213 220 219 217 218 213 225 247 258 262 276 253 250 262 252 248 252 242 214 201 210 223 272 288 268 260
159 159 156 156 154 154 148 148 146 149 158 163 159 152 178 204 221 231 224 228 229 224 225 227 226 231 237 288 301 274 264 249 252 254 255 261 238 196 250 237 231 243 247
159 158 160 157 157 153 145 148 156 153 158 163 162 165 190 216 228 238 236 239 247 243 235 234 232 216 214 227 298 304 269 258 258 258 245 236 239 260 258 260 251 246 249
145 149 169 160 155 155 149 152 158 156 168 174 177 189 203 219 227 234 240 237 234 243 238 224 218 202 209 214 210 263 256 254 251 242 235 227 217 255 256 252 256 265 277
140 160 173 158 155 147 149 162 171 170 182 186 188 200 205 217 225 236 248 249 237 241 248 231 210 200 193 176 192 234 264 261 259 236 211 200 217 245 243 242 246 257 275
138 148 154 153 146 144 149 167 174 175 168 171 177 187 194 218 220 213 233 248 263 256 250 236 213 198 184 170 196 211 253 275 270 252 233 211 197 211 232 237 241 245 266
119 125 124 139 138 147 153 159 159 151 144 152 165 174 194 259 232 200 231 244 262 258 243 235 234 208 166 152 209 224 243 277 277 274 274 230 203 217 232 240 251 251 250
109 116 139 137 130 139 144 158 146 132 134 142 166 181 189 240 221 219 232 234 236 248 253 242 238 226 175 160 201 226 250 265 266 279 280 272 239 239 236 235 238 234 236
98 125 148 140 139 144 146 148 140 135 142 165 188 207 213 223 219 219 233 236 244 254 259 267 266 244 169 123 114 255 265 275 257 270 276 258 245 250 255 244 222 217 226
79 102 113 123 120 119 127 143 143 143 158 183 211 219 219 218 199 209 307 265 288 244 249 269 285 297 281 223 249 254 276 290 311 309 268 250 232 229 232 234 220 213 214
77 98 108 118 115 116 128 140 138 141 166 196 230 240 222 220 218 184 54 34 54 111 124 114 171 149 157 181 196 227 259 288 271 243 266 265 257 249 239 232 233 231 225